Regional Weather Roundup
Issued by NWS

Home | Current Version | Previous Version | Graphics & Text | Print | Product List | Glossary On
Versions: 1 2 3 4 5 6 7 8 9 10 11 12 13 14 15 16 17 18 19 20 21 22 23 24 25 26 27 28 29 30 31 32 33 34 35 36 37 38 39 40 41 42 43 44 45 46 47 48 49 50
000
ASUS45 KABQ 210201
RWRNM
NEW MEXICO REGIONAL WEATHER ROUNDUP
NATIONAL WEATHER SERVICE ALBUQUERQUE NM
700 PM MST MON FEB 20 2017

NOTE: "FAIR" MEANS FEW OR NO CLOUDS BELOW 12,000 FEET AGL WITH NO
       SIGNIFICANT WEATHER OR OBSTRUCTIONS TO VISION.

      THIS PRODUCT IS RELEASED AS TWO VERSIONS.  ONE VERSION NEAR
      THE TOP OF THE HOUR CONTAINING PRELIMINARY DATA FROM ALBUQUERQUE
      AND OTHER STATIONS.  A FINAL VERSION WITH ADDITIONAL DATA IS
      ISSUED ABOUT 10 MINUTES AFTER THE HOUR.

NMZ501-503-504-510>518-210300-
NORTHWEST PLATEAU/NORTHCENTRAL MOUNTAINS

CITY           SKY/WX    TMP DP  RH WIND       PRES   REMARKS
FARMINGTON     FAIR      48  31  51 N5        30.24R
LOS ALAMOS     FAIR      45  23  41 SW3       30.28R
SANTA FE       FAIR      46  21  37 NW3       30.22R
TAOS             N/A     41  19  42 SW9       30.25R
ANGEL FIRE     FAIR      39  18  42 S5        30.28S

$$
NMZ402-403-502-505>509-210300-
WESTCENTRAL MOUNTAINS/SOUTHWEST MOUNTAINS

CITY           SKY/WX    TMP DP  RH WIND       PRES   REMARKS
GALLUP         FAIR      42  33  70 S8        30.30R
GRANTS         FAIR      43  29  57 CALM      30.30R
SILVER CITY    FAIR      48  37  64 W7        30.27R

$$
NMZ407-409-411-412-210300-
SOUTHERN DESERTS

CITY           SKY/WX    TMP DP  RH WIND       PRES   REMARKS
DEMING         FAIR      55  35  47 W7        30.25R
LAS CRUCES     FAIR      55  31  40 W7        30.25R
HOLLOMAN AFB   FAIR      55  25  31 W7        30.24R
ALAMOGORDO     FAIR      55  25  30 NW7       30.22R
T OR C         FAIR      56  28  34 S7        30.22R

$$
NMZ519>523-210300-
CENTRAL VALLEYS/CENTRAL HIGHLANDS

CITY           SKY/WX    TMP DP  RH WIND       PRES   REMARKS
ALBUQUERQUE    FAIR      55  25  31 N7        30.24R
DOUBLE EAGLE   CLEAR     45  27  49 NW5       30.25R
MORIARTY ARPT  FAIR      40  24  52 SW8       30.25R WCI  34
CLINES CORNERS FAIR      40  23  50 NW10      30.25R WCI  33
BELEN          FAIR      51  25  36 CALM      30.23R
SOCORRO        FAIR      52  28  40 SW8       30.22R

$$
NMZ524>526-539-540-210300-
SOUTHCENTRAL MOUNTAINS

CITY           SKY/WX    TMP DP  RH WIND       PRES   REMARKS
RUIDOSO        FAIR      45  19  36 W8        30.28R

$$
NMZ527>531-210300-
NORTHEAST HIGHLANDS/NORTHEAST PLAINS

CITY           SKY/WX    TMP DP  RH WIND       PRES   REMARKS
LAS VEGAS      FAIR      44  12  27 NE7       30.20R
RATON          NOT AVBL
CLAYTON        FAIR      47  14  26 CALM      30.11R

$$
NMZ532>537-210300-
EASTCENTRAL PLAINS

CITY           SKY/WX    TMP DP  RH WIND       PRES   REMARKS
TUCUMCARI      FAIR      53  15  22 SW6       30.08R
CANNON AFB     FAIR      56  17  22 W6        30.11R
CLOVIS AIRPORT FAIR      46  21  36 W6        30.11R

$$
NMZ028-029-538-210300-
SOUTHEAST PLAINS

CITY           SKY/WX    TMP DP  RH WIND       PRES   REMARKS
ROSWELL        FAIR      57  16  20 W7          N/A
ARTESIA        FAIR      55  23  28 W8        30.12R
CARLSBAD       FAIR      57  27  31 SW12      30.10R
HOBBS          FAIR      50  19  29 W7        30.13R


$$




USA.gov is the U.S. government's official web portal to all federal, state and local government web resources and services.